[[{"header":{"parameterUnit":"m.s-1","parameterCategory":2,"la1":30.2992,"la2":30.254,"lo1":-89.0895,"lo2":-89.0443,"dy":0.0025,"dx":0.0025,"nx":19,"ny":19,"refTime":"2026-04-18T09:00:00:Z","depth":"0","parameterNumber":2,"parameterNumberName":"U-component_of_CURRENTS"},"data":[0,0,0,0.1227,0.1228,0.1276,0.1276,0.1338,0.1339,0,0,0,0,0,0,0,0,0,0,0,0.1208,0.1208,0.1227,0.1228,0.1276,0.1276,0.1338,0.1339,0,0,0,0,0,0,0,0,0,0,0,0.1208,0.1208,0.1208,0.1229,0.1276,0.1276,0.1338,0.1302,0,0,0,0,0,0,0,0,0,0,0.1256,0.1235,0.1208,0.1208,0.1229,0.1276,0.1276,0.1301,0.1305,0.1316,0,0.1321,0,0.1332,0.1343,0.1343,0,0,0,0.1231,0.1232,0.1247,0.1208,0.1229,0.1276,0.1255,0.1303,0.1307,0.1321,0.1322,0.1324,0.1333,0.1343,0.1343,0.1394,0.1395,0,0,0.1228,0.1216,0.1244,0.125,0.1238,0.1254,0.1257,0.1306,0.1307,0.1322,0.1326,0.1334,0.1344,0.1344,0.1394,0.1395,0,0,0,0.1219,0.1214,0.1228,0.1247,0.1256,0.1255,0.1258,0.1305,0.131,0.1327,0.1335,0.1344,0.1345,0.1394,0.1394,0.1401,0,0,0,0.1217,0.1209,0.1227,0.122,0.1255,0.1281,0.1257,0.1307,0.1313,0.1334,0.1344,0.1345,0.1394,0.1394,0.1401,0.1409,0,0,0,0.1206,0.1208,0.1213,0.1219,0.124,0.128,0.1288,0.1309,0.1318,0.1343,0.1345,0.1394,0.1394,0.1401,0.1408,0.1432,0,0,0,0.1194,0.1202,0.1212,0.1226,0.1239,0.1273,0.1288,0.1311,0.133,0.1344,0.1394,0.1394,0.14,0.1407,0.1431,0.1485,0.1493,0,0,0.1198,0.1202,0.1211,0.1222,0.1249,0.1267,0.1301,0.1328,0.134,0.1378,0.138,0.1401,0.1408,0.1432,0.1501,0.1508,0,0,0,0.1209,0.1215,0.1225,0.1243,0.1268,0.1299,0.1324,0.1341,0.1373,0.1353,0.1405,0.1409,0.1424,0.1455,0.1461,0.1579,0.1396,0.1396,0.1396,0.1202,0.1218,0.1235,0.1261,0.1283,0.1321,0.1349,0.1377,0.1383,0.1396,0.1417,0.1444,0.1476,0.1481,0.1602,0.1418,0.1418,0.1418,0.1418,0.1212,0.1226,0.1245,0.1267,0.1298,0.1329,0.1382,0.1393,0.144,0.1431,0.1445,0.1463,0.1489,0.1615,0.1418,0.1418,0.1418,0.1418,0.1418,0.1213,0.1221,0.1233,0.1262,0.1298,0.1339,0.1391,0.1424,0.1449,0.1467,0.151,0.1511,0.1621,0.1476,0.1476,0.1476,0.1476,0.1476,0.1476,0.1208,0.1221,0.123,0.1262,0.1281,0.1327,0.1402,0.1444,0.1508,0.153,0.153,0.1654,0.1462,0.1458,0.1478,0.1478,0.1478,0.1478,0.1477,0.1212,0.1211,0.1223,0.1235,0.1275,0.1311,0.1395,0.1504,0.1555,0.1594,0.1758,0.1569,0.1577,0.1572,0.1572,0.162,0.162,0.162,0.162,0.1206,0.121,0.1207,0.1215,0.1245,0.1298,0.1392,0.1529,0.1733,0.1857,0.1883,0.1897,0.1886,0.1912,0.19,0.1906,0.2038,0.2039,0.2039,0.1204,0.1203,0.1191,0.1193,0.122,0.1277,0.1367,0.1554,0.1902,0.2067,0.2041,0.2023,0.205,0.2023,0.2065,0.2039,0.2048,0,0]},{"header":{"parameterUnit":"m.s-1","parameterCategory":2,"la1":30.2992,"la2":30.254,"lo1":-89.0895,"lo2":-89.0443,"dy":0.0025,"dx":0.0025,"nx":19,"ny":19,"refTime":"2026-04-18T09:00:00:Z","depth":"0","parameterNumber":3,"parameterNumberName":"V-component_of_CURRENTS"},"data":[0,0,0,0.0144,0.0145,0.0166,0.0166,0.0166,0.0166,0,0,0,0,0,0,0,0,0,0,0,0.0134,0.0135,0.0144,0.0145,0.0166,0.0166,0.0166,0.0166,0,0,0,0,0,0,0,0,0,0,0,0.0134,0.0135,0.0135,0.0145,0.0166,0.0166,0.0166,0.0155,0,0,0,0,0,0,0,0,0,0,0.0137,0.0132,0.0135,0.0135,0.0145,0.0166,0.0166,0.0155,0.0156,0.0149,0,0.0156,0,0.0163,0.0165,0.0165,0,0,0,0.014,0.0131,0.0141,0.0135,0.0145,0.0166,0.0155,0.0156,0.0157,0.015,0.0156,0.0156,0.0163,0.0165,0.0165,0.0173,0.0173,0,0,0.0139,0.0133,0.014,0.0141,0.0154,0.0155,0.0156,0.0157,0.0156,0.0156,0.0156,0.0163,0.0165,0.0165,0.0173,0.0173,0,0,0,0.0139,0.0132,0.0143,0.0141,0.0149,0.0155,0.0157,0.0156,0.0161,0.0156,0.0163,0.0165,0.0165,0.0173,0.0173,0.0214,0,0,0,0.0138,0.0133,0.0142,0.0138,0.0149,0.0156,0.0156,0.016,0.0161,0.0163,0.0165,0.0165,0.0173,0.0173,0.0213,0.0241,0,0,0,0.0133,0.0132,0.0137,0.0138,0.015,0.0156,0.0161,0.0161,0.0165,0.0165,0.0165,0.0173,0.0173,0.0211,0.0238,0.0263,0,0,0,0.0123,0.0141,0.0137,0.016,0.015,0.0178,0.0161,0.0174,0.0177,0.0165,0.0173,0.0173,0.0211,0.0236,0.0261,0.0343,0.0357,0,0,0.0143,0.0143,0.0159,0.0156,0.0191,0.0175,0.0202,0.0194,0.0177,0.017,0.017,0.0213,0.0238,0.0263,0.0359,0.0374,0,0,0,0.0164,0.0176,0.0185,0.0204,0.0216,0.0229,0.0219,0.0212,0.0208,0.0181,0.0208,0.0222,0.0236,0.0282,0.0293,0.0328,0.0175,0.0175,0.0175,0.0177,0.0194,0.0224,0.0245,0.026,0.0264,0.0271,0.0257,0.0233,0.0234,0.0251,0.0292,0.0341,0.035,0.0386,0.024,0.024,0.024,0.024,0.0216,0.0239,0.0256,0.0292,0.0303,0.0322,0.0323,0.0308,0.0314,0.0282,0.0294,0.0317,0.0365,0.0398,0.0243,0.0242,0.0242,0.0242,0.0241,0.0228,0.0243,0.0266,0.0317,0.0355,0.0367,0.0419,0.0394,0.036,0.0372,0.0414,0.0414,0.0447,0.0375,0.0375,0.0375,0.0376,0.0376,0.0376,0.0231,0.0257,0.0303,0.0351,0.0395,0.0448,0.0477,0.0495,0.0496,0.0473,0.0474,0.0476,0.0334,0.0333,0.038,0.0379,0.0378,0.0378,0.0378,0.0261,0.027,0.0342,0.039,0.0497,0.0609,0.0617,0.0678,0.066,0.0673,0.0637,0.0524,0.0521,0.0513,0.0516,0.0607,0.0607,0.0607,0.0607,0.0277,0.0287,0.0396,0.0488,0.0595,0.0689,0.0869,0.0918,0.0854,0.0832,0.075,0.0742,0.0731,0.0738,0.0724,0.0731,0.0874,0.0874,0.0874,0.0306,0.0337,0.0424,0.0517,0.065,0.0802,0.1024,0.1218,0.1089,0.0884,0.0785,0.0774,0.0756,0.0736,0.0737,0.0715,0.0721,0,0]}],[{"header":{"parameterUnit":"m.s-1","parameterCategory":2,"la1":30.2992,"la2":30.254,"lo1":-89.0895,"lo2":-89.0443,"dy":0.0025,"dx":0.0025,"nx":19,"ny":19,"refTime":"2026-04-18T09:00:00:Z","depth":"2","parameterNumber":2,"parameterNumberName":"U-component_of_CURRENTS"},"data":[0,0,0,0.1124,0.1125,0.1175,0.1175,0.1234,0.1235,0,0,0,0,0,0,0,0,0,0,0,0.1104,0.1104,0.1124,0.1125,0.1175,0.1175,0.1234,0.1235,0,0,0,0,0,0,0,0,0,0,0,0.1104,0.1104,0.1105,0.1125,0.1175,0.1175,0.1234,0.1198,0,0,0,0,0,0,0,0,0,0,0.115,0.113,0.1104,0.1105,0.1125,0.1175,0.1175,0.1196,0.12,0.1209,0,0.1215,0,0.1226,0.1238,0.1238,0,0,0,0.1127,0.1127,0.1142,0.1105,0.1126,0.1175,0.1153,0.1198,0.1203,0.1214,0.1216,0.1218,0.1227,0.1239,0.1239,0.1286,0.1286,0,0,0.1124,0.1113,0.1139,0.1145,0.1137,0.1151,0.1155,0.1201,0.1204,0.1216,0.122,0.1228,0.1239,0.1239,0.1285,0.1286,0,0,0,0.1115,0.1111,0.1125,0.1142,0.1152,0.1153,0.1157,0.1202,0.1207,0.1221,0.1229,0.1239,0.124,0.1285,0.1285,0.1296,0,0,0,0.1113,0.1106,0.1124,0.1118,0.1151,0.1178,0.1156,0.1204,0.1209,0.1229,0.1239,0.124,0.1285,0.1285,0.1295,0.1303,0,0,0,0.1102,0.1105,0.111,0.1117,0.1138,0.1178,0.1186,0.1205,0.1214,0.1238,0.1241,0.1285,0.1285,0.1295,0.1302,0.1326,0,0,0,0.109,0.1099,0.111,0.1124,0.1138,0.1171,0.1186,0.1209,0.1227,0.124,0.1285,0.1285,0.1295,0.1302,0.1325,0.1368,0.1376,0,0,0.1094,0.1099,0.1108,0.1119,0.1145,0.1164,0.1197,0.1224,0.1235,0.127,0.1271,0.1295,0.1302,0.1326,0.1383,0.139,0,0,0,0.1105,0.1111,0.1121,0.1139,0.1163,0.1194,0.1219,0.1236,0.1268,0.1248,0.1298,0.1302,0.1316,0.1341,0.1346,0.1287,0.1287,0.1287,0.1287,0.1101,0.1115,0.1132,0.1155,0.1177,0.1215,0.1242,0.127,0.1277,0.1291,0.1312,0.1339,0.1365,0.1369,0.1312,0.1312,0.1312,0.1312,0.1312,0.1111,0.1124,0.1142,0.1163,0.1193,0.1225,0.1275,0.1288,0.1335,0.1327,0.134,0.1352,0.1376,0.1313,0.1313,0.1313,0.1312,0.1312,0.1312,0.1113,0.1121,0.1133,0.116,0.1197,0.1237,0.1288,0.132,0.1346,0.1364,0.14,0.14,0.1351,0.1374,0.1374,0.1374,0.1375,0.1375,0.1375,0.1111,0.1123,0.1132,0.1163,0.1182,0.1228,0.1301,0.1342,0.1402,0.1421,0.1421,0.136,0.1358,0.1355,0.1377,0.1376,0.1376,0.1376,0.1376,0.1116,0.1116,0.1128,0.114,0.1179,0.1201,0.1291,0.1395,0.1446,0.1481,0.1458,0.1456,0.146,0.1456,0.1456,0.1502,0.1502,0.1502,0.1502,0.1112,0.1116,0.1115,0.1122,0.115,0.1185,0.1241,0.131,0.1406,0.1432,0.1434,0.1414,0.1412,0.1412,0.1408,0.1406,0.1439,0.1439,0.1438,0.111,0.111,0.1099,0.11,0.1124,0.1151,0.1164,0.1173,0.1293,0.1428,0.1342,0.1513,0.1492,0.1485,0.1489,0.1482,0.1481,0,0]},{"header":{"parameterUnit":"m.s-1","parameterCategory":2,"la1":30.2992,"la2":30.254,"lo1":-89.0895,"lo2":-89.0443,"dy":0.0025,"dx":0.0025,"nx":19,"ny":19,"refTime":"2026-04-18T09:00:00:Z","depth":"2","parameterNumber":3,"parameterNumberName":"V-component_of_CURRENTS"},"data":[0,0,0,0.0124,0.0125,0.0146,0.0146,0.0145,0.0145,0,0,0,0,0,0,0,0,0,0,0,0.0115,0.0115,0.0124,0.0125,0.0146,0.0146,0.0145,0.0145,0,0,0,0,0,0,0,0,0,0,0,0.0115,0.0115,0.0116,0.0125,0.0146,0.0146,0.0145,0.0135,0,0,0,0,0,0,0,0,0,0,0.0118,0.0113,0.0115,0.0116,0.0125,0.0146,0.0146,0.0135,0.0136,0.0129,0,0.0135,0,0.0143,0.0145,0.0145,0,0,0,0.0121,0.0112,0.0121,0.0116,0.0126,0.0146,0.0135,0.0136,0.0136,0.013,0.0136,0.0136,0.0143,0.0145,0.0145,0.0155,0.0155,0,0,0.012,0.0114,0.0121,0.0122,0.0135,0.0135,0.0136,0.0136,0.0136,0.0136,0.0136,0.0143,0.0145,0.0145,0.0155,0.0155,0,0,0,0.0119,0.0113,0.0123,0.0122,0.0129,0.0135,0.0137,0.0136,0.014,0.0136,0.0143,0.0145,0.0145,0.0154,0.0155,0.0196,0,0,0,0.0118,0.0114,0.0123,0.0119,0.0129,0.0136,0.0136,0.014,0.0141,0.0143,0.0145,0.0145,0.0154,0.0155,0.0195,0.0222,0,0,0,0.0114,0.0113,0.0118,0.0119,0.0131,0.0137,0.0141,0.0141,0.0145,0.0145,0.0145,0.0154,0.0155,0.0193,0.022,0.0243,0,0,0,0.0104,0.0122,0.0117,0.0141,0.013,0.0159,0.0141,0.0154,0.0157,0.0145,0.0154,0.0155,0.0193,0.0218,0.0241,0.0313,0.0327,0,0,0.0125,0.0125,0.0141,0.0137,0.0173,0.0156,0.0184,0.0175,0.0158,0.0151,0.0151,0.0195,0.0219,0.0243,0.0332,0.0346,0,0,0,0.0146,0.0158,0.0168,0.0187,0.0199,0.0212,0.0202,0.0195,0.019,0.0162,0.019,0.0204,0.0218,0.0257,0.0268,0.0156,0.0156,0.0156,0.0156,0.0161,0.0177,0.0209,0.0229,0.0244,0.0248,0.0256,0.0242,0.0217,0.0219,0.0234,0.0276,0.0319,0.0327,0.0224,0.0224,0.0225,0.0225,0.0225,0.0201,0.0224,0.0242,0.0278,0.0289,0.0309,0.0309,0.0294,0.0299,0.0267,0.0278,0.0294,0.0342,0.0228,0.0227,0.0227,0.0227,0.0226,0.0226,0.0214,0.0229,0.0252,0.0304,0.0342,0.0354,0.0404,0.0379,0.0346,0.0357,0.039,0.039,0.0309,0.0359,0.0359,0.0359,0.0359,0.036,0.036,0.0218,0.0244,0.0289,0.0338,0.0381,0.0434,0.0462,0.0478,0.0474,0.0449,0.045,0.0322,0.0317,0.0316,0.0363,0.0363,0.0362,0.0362,0.0362,0.0247,0.0256,0.0328,0.0376,0.0482,0.0585,0.0595,0.0649,0.063,0.064,0.05,0.0495,0.049,0.0482,0.0485,0.0572,0.0572,0.0572,0.0573,0.0263,0.0273,0.0381,0.0471,0.0576,0.0661,0.0808,0.0811,0.0727,0.0657,0.0653,0.0636,0.0627,0.0627,0.0615,0.0619,0.0742,0.0742,0.0742,0.0292,0.0322,0.0407,0.0498,0.0629,0.0763,0.0925,0.0963,0.0825,0.0745,0.064,0.0592,0.0556,0.0546,0.0533,0.0519,0.052,0,0]}],[{"header":{"parameterUnit":"m.s-1","parameterCategory":2,"la1":30.2992,"la2":30.254,"lo1":-89.0895,"lo2":-89.0443,"dy":0.0025,"dx":0.0025,"nx":19,"ny":19,"refTime":"2026-04-18T09:00:00:Z","depth":"4","parameterNumber":2,"parameterNumberName":"U-component_of_CURRENTS"},"data":[0,0,0,0.0493,0.0495,0.0595,0.0596,0.0697,0.0698,0,0,0,0,0,0,0,0,0,0,0,0.0459,0.0459,0.0493,0.0495,0.0595,0.0596,0.0697,0.0698,0,0,0,0,0,0,0,0,0,0,0,0.0458,0.0459,0.046,0.0496,0.0595,0.0596,0.0697,0.0629,0,0,0,0,0,0,0,0,0,0,0.0535,0.0511,0.0459,0.046,0.0496,0.0595,0.0596,0.0626,0.0633,0.0643,0,0.0661,0,0.068,0.0704,0.0704,0,0,0,0.0498,0.0505,0.0527,0.046,0.0497,0.0595,0.0551,0.063,0.0638,0.0653,0.0662,0.0666,0.0682,0.0704,0.0705,0.0781,0.0781,0,0,0.0493,0.0483,0.0521,0.0532,0.0526,0.0548,0.0554,0.0635,0.0647,0.0663,0.0669,0.0684,0.0705,0.0706,0.0781,0.0781,0,0,0,0.0475,0.0479,0.0499,0.0527,0.0547,0.0551,0.0558,0.0644,0.0649,0.067,0.0685,0.0706,0.0707,0.078,0.0781,0.0804,0,0,0,0.0472,0.0468,0.0497,0.0492,0.0546,0.0602,0.0565,0.0644,0.0653,0.0684,0.0706,0.0708,0.078,0.0781,0.0803,0.0809,0,0,0,0.0454,0.0467,0.0477,0.0492,0.0533,0.0601,0.0612,0.0646,0.0662,0.0704,0.0708,0.078,0.0781,0.0802,0.0808,0.085,0,0,0,0.044,0.0454,0.0477,0.05,0.0532,0.0582,0.0612,0.0664,0.07,0.0706,0.078,0.0781,0.0802,0.0807,0.0848,0.0758,0,0,0,0.0444,0.0455,0.0466,0.0489,0.0525,0.0568,0.062,0.0684,0.0708,0.0752,0.0754,0.0804,0.0808,0.0849,0.0782,0,0,0,0,0.0458,0.0467,0.0482,0.0514,0.0553,0.0608,0.0665,0.0692,0.0757,0.0731,0.0805,0.0807,0.0833,0.0776,0.0783,0.0783,0.0783,0.0783,0.0783,0.0455,0.0472,0.0495,0.0528,0.0566,0.0642,0.069,0.074,0.0762,0.0793,0.0828,0.0876,0.0815,0.0831,0.0831,0.0832,0.0832,0.0832,0.0832,0.0453,0.0462,0.0502,0.0533,0.0592,0.0649,0.0731,0.0768,0.0847,0.084,0.0865,0.0805,0.0834,0.0834,0.0833,0.0833,0.0833,0.0833,0.0833,0.0438,0.0442,0.0476,0.0527,0.0599,0.0675,0.0758,0.0824,0.0871,0.0907,0.0873,0.09,0.0898,0.0938,0.0938,0.0938,0.0939,0.0939,0.0939,0.0405,0.0432,0.0465,0.0526,0.0577,0.0666,0.0789,0.0844,0.0908,0.089,0.093,0.0912,0.0908,0.0905,0.0942,0.0942,0.0941,0.0941,0.0941,0.0373,0.0398,0.0438,0.0484,0.0585,0.0637,0.076,0.0845,0.0899,0.0906,0.0883,0.0885,0.0873,0.0871,0.0865,0.0893,0.0892,0.0891,0,0.0353,0.0365,0.0423,0.0478,0.0542,0.062,0.0686,0.0765,0.0821,0.079,0.0886,0.0856,0.0857,0.0838,0.0835,0.0825,0,0,0,0.034,0.0363,0.0395,0.0452,0.0516,0.0603,0.0702,0.0714,0.0806,0.0839,0.0865,0.0872,0.0915,0.0952,0.0938,0.0934,0.0928,0,0]},{"header":{"parameterUnit":"m.s-1","parameterCategory":2,"la1":30.2992,"la2":30.254,"lo1":-89.0895,"lo2":-89.0443,"dy":0.0025,"dx":0.0025,"nx":19,"ny":19,"refTime":"2026-04-18T09:00:00:Z","depth":"4","parameterNumber":3,"parameterNumberName":"V-component_of_CURRENTS"},"data":[0,0,0,0.0129,0.013,0.0143,0.0143,0.0149,0.0149,0,0,0,0,0,0,0,0,0,0,0,0.0125,0.0125,0.0129,0.013,0.0143,0.0143,0.0149,0.0149,0,0,0,0,0,0,0,0,0,0,0,0.0125,0.0125,0.0125,0.013,0.0143,0.0143,0.0149,0.0141,0,0,0,0,0,0,0,0,0,0,0.013,0.0126,0.0125,0.0125,0.013,0.0143,0.0143,0.0141,0.0142,0.014,0,0.0144,0,0.0147,0.0149,0.0149,0,0,0,0.0129,0.0126,0.0131,0.0125,0.013,0.0143,0.0137,0.0142,0.0142,0.0141,0.0144,0.0144,0.0147,0.0149,0.0149,0.0182,0.0182,0,0,0.0128,0.0125,0.013,0.0131,0.0135,0.0136,0.0137,0.0142,0.0143,0.0144,0.0144,0.0147,0.0149,0.0149,0.0181,0.0182,0,0,0,0.0127,0.0124,0.013,0.0131,0.0135,0.0137,0.0138,0.0142,0.0145,0.0145,0.0147,0.0149,0.0149,0.0181,0.0181,0.0218,0,0,0,0.0126,0.0124,0.0129,0.0128,0.0135,0.014,0.0138,0.0144,0.0145,0.0147,0.0149,0.0149,0.018,0.0181,0.0216,0.0238,0,0,0,0.0124,0.0124,0.0126,0.0127,0.0134,0.014,0.0142,0.0145,0.0147,0.0149,0.0149,0.018,0.0181,0.0215,0.0235,0.0243,0,0,0,0.0119,0.0137,0.0126,0.0151,0.0134,0.0165,0.0142,0.0158,0.0163,0.0149,0.0181,0.0181,0.0214,0.0233,0.0241,0.0244,0,0,0,0.0143,0.014,0.0157,0.0148,0.0186,0.0163,0.0199,0.0189,0.0174,0.0177,0.0178,0.0217,0.0235,0.0242,0.0289,0,0,0,0,0.0166,0.0179,0.0188,0.0206,0.0218,0.0231,0.0221,0.0216,0.0217,0.018,0.0222,0.0233,0.0236,0.0233,0.0185,0.0185,0.0185,0.0185,0.0185,0.0188,0.0204,0.0239,0.026,0.0276,0.0278,0.0286,0.0275,0.0252,0.0258,0.0266,0.0304,0.0304,0.0267,0.0267,0.0268,0.0268,0.0268,0.0268,0.0234,0.0258,0.0278,0.0316,0.0328,0.0351,0.035,0.0333,0.0334,0.0309,0.031,0.0278,0.0272,0.0271,0.027,0.027,0.027,0.0269,0.0269,0.0249,0.0265,0.0289,0.0343,0.0381,0.0393,0.0422,0.0403,0.0373,0.0378,0.0356,0.0328,0.0319,0.0369,0.0369,0.037,0.037,0.037,0.037,0.0252,0.0281,0.0319,0.0372,0.0408,0.0446,0.0462,0.046,0.0426,0.0405,0.0384,0.0338,0.0335,0.0325,0.0372,0.0372,0.0371,0.0371,0.0371,0.0275,0.0282,0.0339,0.0377,0.0463,0.0494,0.0512,0.0495,0.0489,0.0461,0.0412,0.041,0.0394,0.0389,0.0381,0.0446,0.0446,0.0447,0,0.0279,0.029,0.036,0.0424,0.0493,0.0526,0.0541,0.0532,0.0481,0.0474,0.0474,0.042,0.0418,0.04,0.0396,0.0387,0,0,0,0.0293,0.0312,0.0359,0.0427,0.051,0.0533,0.0545,0.0534,0.0491,0.0482,0.0452,0.0451,0.0419,0.0379,0.0348,0.0344,0.0327,0,0]}]]